Regional Weather Roundup
Issued by NWS

Home | Current Version | Previous Version | Text Only | Print | Product List | Glossary On
Versions: 1 2 3 4 5 6 7 8 9 10 11 12 13 14 15 16 17 18 19 20 21 22 23 24 25 26 27 28 29 30 31 32 33 34 35 36 37 38 39 40 41 42 43 44 45 46 47 48 49 50
528
ASUS46 KPQR 140410
RWROR

OREGON REGIONAL WEATHER ROUNDUP
NATIONAL WEATHER SERVICE PORTLAND OR
800 PM PST WED NOV 13 2019

NOTE: "FAIR" INDICATES FEW OR NO CLOUDS BELOW 12,000 FEET WITH
NO SIGNIFICANT WEATHER AND/OR OBSTRUCTIONS TO VISIBILITY.

ORZ001>013-140500-
NORTHWEST OREGON


CITY           SKY/WX    TMP DP  RH WIND       PRES   REMARKS
ASTORIA        MOCLDY    50  47  89 E7        29.95S
TILLAMOOK      PTCLDY    50  46  87 SE6       29.96S
NEWPORT        MOCLDY    52  46  82 E7        29.98S
PORTLAND       MOCLDY    48  41  76 SE8       30.01R
VANCOUVER WA   PTCLDY    43  39  86 CALM      30.01R
SCAPPOOSE      PTCLDY    44  44 100 CALM      30.00S FOG
HILLSBORO      PTCLDY    45  43  93 CALM      30.00S
AURORA         CLEAR     47  40  76 N3        30.00R
MCMINNVILLE    CLEAR     47  43  86 N5        29.99S
SALEM          FOG       46  45  96 S3        29.99R VSB 1/2
CORVALLIS      CLOUDY    50  47  89 NE3       30.01R
EUGENE         FOG       49  47  93 N5        30.00S VSB 1/2
CRESWELL       FOG       48  48 100 NW3       29.98S VSB 1
$$

ORZ021-028-140500-
SOUTHWEST OREGON


CITY           SKY/WX    TMP DP  RH WIND       PRES   REMARKS
NORTH BEND     PTCLDY    48  48 100 N5        29.98R
BROOKINGS      LGT RAIN  48  48 100 E3        29.99F VSB 1/2
ROSEBURG       PTCLDY    46  42  86 CALM      29.97S
SEXTON SUMMIT  MOCLDY    58  20  22 S7        30.02S
GRANTS PASS    FAIR      46  41  81 CALM      30.02S
MEDFORD        CLOUDY    50  36  58 CALM      29.98R
$$

ORZ014>016-041-140500-
COLUMBIA GORGE


CITY           SKY/WX    TMP DP  RH WIND       PRES   REMARKS
TROUTDALE      PTCLDY    48  39  71 E23G31    30.01R
HOOD RIVER     CLOUDY    41  37  87 N5        30.20S
THE DALLES     CLOUDY    43  38  82 NE3       30.22S
$$

ORZ029>031-041-044-049-050-061>064-502-503-505>511-140500-
EASTERN OREGON


CITY           SKY/WX    TMP DP  RH WIND       PRES   REMARKS
MADRAS         CLOUDY    37  36  93 N5        30.14R
REDMOND        CLOUDY    41  39  93 NW12      30.09R
BEND           CLOUDY    43  41  93 N5        30.08S
PRINEVILLE     PTCLDY    39  39 100 SW5       30.07S
KLAMATH FALLS  CLOUDY    40  31  70 CALM      30.06R
LAKEVIEW       PTCLDY    36  25  64 NW8       30.09S
HERMISTON      CLOUDY    41  39  93 S3        30.19F FOG
PENDLETON      CLOUDY    38  36  92 CALM      30.16S FOG
JOHN DAY       PTCLDY    45  36  72 E7        30.09R
MEACHAM        CLOUDY    30  28  92 CALM      30.10S FOG
LA GRANDE      CLEAR     37  32  82 N3        30.12S HAZE
BAKER CITY     CLEAR     32  27  81 CALM      30.12S
BURNS          PTCLDY    34  26  72 NW6       30.10R
ROME             N/A     37  22  54 CALM      30.09R
ONTARIO        CLEAR     38  28  67 W3        30.13S
$$




USA.gov is the U.S. government's official web portal to all federal, state and local government web resources and services.